Wind_Speed
21 20 19 19 19 19 19 20 20 20 19 18 19 20 20 20 20 20 19 19 19 20 21 21 21 21 20 20 21 22 22 22 23 23 22 22 21 22 23 24 23 23 23
21 20 19 19 19 19 20 20 21 21 20 19 20 20 20 20 20 20 20 20 21 22 23 23 23 23 22 22 22 22 22 23 24 24 24 23 22 23 23 25 25 25 24
20 19 19 19 20 20 21 21 21 21 20 20 21 21 21 21 21 20 21 22 22 23 23 24 24 24 23 22 22 22 22 22 23 24 24 24 24 24 25 25 26 26 26
20 19 19 20 21 21 21 20 21 22 21 21 22 22 22 22 22 22 23 23 23 24 24 25 24 24 23 23 23 22 23 23 23 24 24 25 25 25 25 25 26 27 26
21 21 21 20 21 21 21 21 22 22 21 22 23 23 23 22 23 23 23 23 23 24 25 25 24 24 24 24 24 23 23 24 24 25 25 26 26 26 26 26 26 27 27
21 22 22 22 21 22 22 22 22 22 22 22 23 24 23 23 23 23 23 23 24 24 25 25 24 24 24 24 25 25 25 26 26 26 26 26 26 27 27 27 28 28 28
22 22 23 23 22 22 23 23 23 23 23 23 23 23 23 22 22 22 22 23 24 25 25 25 25 25 24 24 25 26 27 27 27 28 28 28 28 27 28 28 28 28 29
22 23 23 23 23 23 24 23 23 23 24 23 23 23 22 22 22 23 24 24 24 25 25 25 25 25 25 25 25 26 27 27 28 29 29 29 29 29 29 29 29 29 29
22 23 23 24 23 24 24 23 23 23 24 23 23 22 22 23 23 24 24 24 24 25 25 24 23 24 25 25 25 26 28 28 28 29 29 29 30 30 30 30 30 29 28
23 23 23 24 23 23 24 23 23 24 23 23 23 22 23 24 24 24 24 24 24 24 24 24 25 25 25 26 26 27 27 27 27 28 29 29 30 30 30 30 30 29 28
23 24 24 23 23 23 23 24 24 23 23 22 22 22 23 23 24 24 24 25 25 24 24 25 25 25 26 26 26 26 26 26 27 27 28 28 29 29 30 30 30 29 29
24 24 24 23 23 23 23 23 23 22 22 22 22 22 23 24 25 25 25 25 25 25 25 25 25 26 26 26 25 25 26 26 27 27 27 27 27 28 28 29 28 28 28
24 24 23 23 23 22 22 22 22 21 22 22 23 23 24 24 25 25 25 25 25 25 25 26 26 25 25 25 24 25 24 25 25 25 25 25 26 27 27 28 28 28 28
24 23 22 22 23 22 22 22 22 22 22 22 23 23 24 24 24 24 24 24 25 25 26 27 26 25 25 25 25 25 24 24 24 24 24 25 26 26 27 28 28 28 28
24 23 22 23 23 23 22 22 22 22 22 22 23 24 24 24 24 24 25 25 26 26 26 27 27 26 25 25 25 25 25 25 25 25 25 25 25 26 27 27 27 27 28
24 24 23 23 23 23 22 22 22 22 23 23 23 24 24 24 25 25 25 26 26 26 26 27 26 26 26 25 26 26 26 26 26 25 25 25 26 27 27 27 27 28 29
23 23 23 23 23 23 22 22 23 23 23 24 24 25 25 25 26 25 26 26 26 26 26 26 27 26 26 26 26 26 26 26 25 25 25 25 25 26 26 27 27 28 28
23 24 24 23 23 23 23 23 23 24 24 24 24 24 25 26 26 26 26 26 26 27 27 27 26 26 26 26 26 26 26 26 25 25 25 25 25 26 26 25 25 26 26
24 24 25 24 24 23 23 23 24 23 24 24 25 25 26 27 26 26 26 26 27 27 27 27 26 26 26 26 26 25 25 25 25 25 25 25 25 25 26 26 25 25 25
25 25 25 24 23 23 23 24 23 23 24 25 25 26 27 27 27 27 27 27 27 27 27 26 27 26 26 26 24 24 24 25 25 25 26 26 26 26 26 25 25 25 24
25 25 25 24 23 23 23 23 23 23 24 25 26 27 28 28 27 27 28 28 27 27 27 26 26 26 26 25 24 24 24 24 24 25 25 25 25 25 25 24 25 25 25
25 24 24 24 23 24 24 24 23 24 25 26 27 28 28 28 28 28 28 28 27 27 27 27 27 26 25 25 25 25 25 24 24 24 25 24 24 25 25 25 25 25 26
24 25 25 25 24 24 24 24 24 25 25 27 27 27 27 27 28 28 29 29 28 28 27 27 26 26 25 25 25 25 25 24 24 25 25 24 23 24 24 25 25 26 26
24 25 25 25 24 23 23 24 24 25 25 26 26 26 26 27 28 28 29 28 28 28 27 26 26 26 26 26 25 25 25 25 24 24 23 23 23 24 24 24 24 24 25
25 25 26 25 24 23 24 25 25 25 26 26 26 27 27 28 28 29 29 28 28 28 27 27 27 26 26 26 26 25 25 25 24 23 23 23 23 23 24 24 24 25 25
26 26 26 25 25 25 25 25 25 26 26 26 26 27 28 29 30 30 30 28 28 27 27 27 27 27 27 26 25 24 24 24 24 24 24 23 23 23 24 24 24 24 24
Wind_Direction
296 299 301 303 303 302 303 304 305 304 301 300 298 296 294 293 293 292 292 291 292 291 290 289 287 284 282 280 277 272 268 267 269 269 268 266 266 266 265 263 263 265 266
294 299 301 303 303 302 303 304 304 303 302 300 300 298 294 292 291 290 290 292 292 292 291 289 289 285 283 280 276 273 270 269 269 269 268 267 266 266 266 263 262 264 265
296 297 298 299 301 302 301 303 304 303 301 300 301 300 297 293 292 291 290 290 292 293 292 291 291 287 282 279 276 274 270 268 269 270 269 268 267 267 266 266 264 265 266
299 299 299 299 299 300 300 300 302 302 302 301 302 301 300 298 294 291 291 290 291 292 292 291 290 286 281 278 276 273 270 269 269 269 270 271 270 269 267 266 265 265 265
297 299 298 297 297 299 300 300 300 300 301 301 301 301 301 298 295 294 292 292 293 292 290 291 290 288 283 279 277 274 272 270 270 271 271 271 272 271 271 269 268 266 265
295 295 296 297 296 296 297 298 296 296 298 298 299 301 301 300 297 294 292 292 291 291 290 290 289 286 283 278 277 276 273 271 271 271 271 270 271 270 270 269 269 267 265
294 293 294 295 295 296 297 296 297 296 297 298 299 299 299 299 299 298 295 294 293 292 290 288 287 285 281 277 277 276 274 274 272 272 271 269 269 268 269 270 269 269 268
290 291 292 293 294 295 295 295 295 295 298 298 297 297 297 299 299 297 295 295 297 296 293 287 285 284 282 280 280 277 276 276 273 272 272 270 269 269 269 270 270 269 270
293 291 292 293 294 293 294 295 295 294 295 295 294 295 296 297 298 297 296 295 297 297 293 291 290 288 286 284 281 279 278 276 274 273 272 271 269 269 269 269 270 270 270
297 298 297 296 295 293 294 294 294 294 293 293 293 293 296 298 298 298 297 296 296 297 296 292 289 289 288 286 285 283 282 279 277 274 272 273 272 269 269 270 270 270 271
298 299 297 298 298 297 296 297 296 296 294 294 294 293 295 297 298 299 299 297 297 297 297 296 291 290 288 286 285 284 283 280 279 276 273 272 271 271 270 269 270 271 271
295 296 297 299 299 298 297 298 298 297 293 293 293 293 295 296 297 298 298 298 297 296 294 293 291 289 288 288 287 286 286 283 281 279 275 272 270 271 270 269 269 270 270
292 293 295 297 297 295 294 296 297 297 295 293 292 295 297 298 298 298 298 298 297 295 295 295 291 289 289 290 290 288 286 285 284 280 277 272 270 271 270 269 270 269 269
294 292 294 296 297 297 296 295 295 295 294 295 295 296 298 300 299 299 300 299 298 296 296 295 293 292 290 290 291 288 287 286 284 280 276 274 272 272 272 271 270 270 271
296 295 296 298 299 299 298 295 295 294 295 296 297 297 298 299 300 300 301 300 299 297 296 296 295 294 292 291 290 288 286 285 283 281 278 277 274 274 273 272 271 272 273
298 298 299 300 301 300 298 296 296 295 295 297 297 297 299 299 299 298 298 299 299 299 298 297 296 294 293 291 289 288 286 284 282 280 279 277 276 275 273 273 272 272 272
300 301 300 300 300 300 298 296 297 297 297 297 298 298 299 299 298 297 297 297 299 300 299 298 298 295 294 292 289 286 286 285 282 280 279 278 278 277 275 274 273 273 273
297 299 301 301 301 299 296 295 296 297 298 298 298 298 300 300 300 299 299 299 300 301 300 299 298 296 294 291 289 286 285 283 282 279 278 278 277 275 275 275 274 274 275
294 296 297 298 299 297 295 296 295 296 297 298 298 300 302 303 302 302 303 303 303 302 300 300 299 298 295 292 290 288 285 283 282 281 280 279 277 275 274 273 273 274 275
290 292 295 297 297 294 294 295 294 296 297 299 300 302 303 303 303 303 304 304 303 303 301 299 299 298 296 294 292 291 288 285 283 282 281 280 278 275 272 272 273 273 274
289 291 293 295 294 293 293 292 294 295 297 299 300 301 302 302 302 303 304 303 303 303 302 300 299 298 297 294 292 292 288 286 285 284 283 281 279 277 275 274 274 273 273
289 291 292 294 294 293 293 291 293 295 297 299 301 301 301 302 302 302 303 303 303 304 302 300 299 299 296 294 292 290 288 286 286 286 286 284 280 277 276 275 275 273 274
288 291 292 292 292 293 294 295 295 296 297 299 300 301 302 304 305 305 304 303 301 302 301 299 299 298 295 294 292 290 289 287 285 285 286 286 283 280 278 277 277 274 274
287 290 292 290 288 290 293 296 298 300 301 302 303 303 305 305 306 307 306 304 302 300 300 299 298 297 296 295 293 290 289 287 285 285 285 285 284 282 280 278 278 276 276
287 288 290 290 289 291 293 295 296 299 302 303 304 305 307 307 308 309 309 306 303 300 299 299 298 297 296 296 294 292 291 289 287 285 286 286 285 284 282 280 277 276 275
286 288 288 287 288 290 293 294 297 299 300 301 304 305 307 307 308 309 308 306 304 302 300 299 298 298 296 295 293 292 290 288 288 287 286 287 287 286 284 282 279 277 277
Height
5855 5853 5852 5851 5849 5848 5847 5846 5844 5842 5841 5839 5838 5837 5836 5834 5833 5832 5831 5830 5829 5828 5828 5827 5827 5826 5826 5826 5826 5826 5827 5827 5828 5829 5829 5830 5831 5832 5833 5833 5834 5835 5836
5851 5850 5848 5847 5846 5845 5844 5842 5841 5839 5837 5836 5834 5833 5831 5829 5828 5827 5827 5826 5825 5824 5823 5822 5821 5821 5820 5820 5820 5820 5821 5822 5822 5823 5823 5824 5826 5826 5827 5827 5828 5829 5830
5848 5847 5845 5844 5842 5841 5840 5839 5837 5835 5833 5832 5830 5828 5826 5825 5824 5823 5822 5821 5820 5818 5817 5816 5815 5815 5814 5814 5814 5814 5815 5816 5816 5816 5817 5817 5819 5820 5821 5821 5822 5822 5823
5844 5843 5842 5840 5839 5838 5836 5835 5833 5831 5829 5828 5826 5824 5822 5821 5820 5818 5817 5816 5814 5813 5811 5810 5809 5809 5808 5808 5808 5809 5809 5810 5810 5810 5811 5811 5811 5812 5813 5814 5815 5815 5816
5841 5839 5838 5836 5835 5833 5832 5830 5829 5827 5825 5823 5821 5819 5818 5816 5814 5813 5811 5810 5809 5807 5806 5805 5804 5803 5803 5802 5802 5803 5803 5803 5804 5804 5804 5804 5804 5805 5805 5806 5807 5808 5808
5837 5835 5833 5832 5830 5829 5827 5826 5824 5822 5821 5819 5817 5815 5813 5811 5809 5808 5806 5805 5804 5802 5801 5800 5799 5798 5797 5797 5796 5796 5797 5797 5797 5797 5797 5798 5798 5798 5798 5798 5799 5799 5800
5833 5831 5829 5828 5826 5824 5823 5821 5819 5818 5816 5814 5812 5810 5808 5806 5805 5803 5802 5800 5799 5797 5796 5794 5793 5792 5791 5790 5790 5790 5790 5790 5790 5790 5790 5790 5790 5791 5791 5791 5791 5792 5792
5828 5826 5824 5823 5821 5819 5818 5816 5814 5813 5811 5809 5807 5805 5803 5802 5800 5798 5796 5795 5793 5791 5790 5788 5787 5786 5785 5784 5783 5783 5783 5782 5782 5782 5782 5783 5783 5783 5783 5783 5784 5784 5785
5822 5821 5819 5818 5816 5814 5812 5811 5809 5807 5805 5804 5802 5800 5799 5797 5795 5793 5791 5790 5788 5786 5784 5782 5781 5780 5779 5778 5777 5776 5775 5775 5774 5774 5774 5775 5775 5775 5775 5775 5776 5776 5777
5818 5816 5814 5813 5811 5809 5807 5805 5804 5801 5799 5798 5796 5795 5794 5792 5789 5788 5786 5784 5782 5780 5778 5776 5775 5773 5772 5771 5770 5769 5767 5767 5766 5766 5766 5766 5766 5766 5766 5767 5767 5768 5769
5814 5811 5809 5807 5806 5804 5802 5800 5798 5796 5794 5792 5791 5790 5788 5786 5784 5782 5780 5778 5776 5774 5772 5770 5768 5767 5766 5764 5763 5761 5760 5759 5758 5758 5758 5758 5758 5758 5758 5759 5759 5760 5760
5808 5806 5804 5802 5801 5799 5796 5794 5792 5790 5788 5787 5786 5784 5782 5781 5779 5777 5774 5772 5770 5768 5766 5764 5762 5760 5759 5757 5756 5754 5753 5752 5751 5750 5750 5750 5750 5750 5750 5751 5751 5752 5752
5803 5801 5799 5797 5795 5793 5791 5789 5788 5785 5783 5782 5781 5779 5777 5775 5773 5771 5769 5766 5764 5762 5760 5758 5756 5754 5752 5750 5749 5747 5745 5744 5743 5742 5742 5742 5742 5742 5742 5743 5743 5744 5744
5797 5795 5793 5792 5790 5788 5785 5784 5783 5781 5779 5777 5775 5774 5772 5770 5768 5765 5763 5761 5758 5756 5754 5752 5749 5747 5745 5744 5742 5740 5738 5737 5736 5735 5735 5735 5735 5735 5735 5735 5735 5736 5736
5792 5790 5788 5786 5784 5783 5781 5780 5778 5776 5774 5772 5770 5768 5766 5764 5762 5760 5757 5755 5753 5750 5748 5745 5743 5740 5738 5737 5735 5733 5731 5730 5729 5728 5727 5727 5727 5727 5727 5727 5727 5727 5728
5787 5785 5783 5781 5779 5778 5776 5775 5773 5771 5769 5767 5765 5762 5760 5758 5756 5754 5751 5749 5747 5744 5741 5739 5736 5734 5731 5729 5727 5726 5724 5723 5722 5721 5720 5719 5719 5719 5719 5718 5719 5719 5719
5782 5780 5778 5777 5775 5773 5771 5770 5768 5766 5764 5762 5759 5757 5754 5752 5750 5748 5745 5743 5740 5737 5735 5732 5729 5727 5724 5722 5720 5718 5717 5715 5714 5713 5712 5712 5711 5711 5711 5711 5711 5711 5711
5778 5776 5773 5771 5770 5768 5766 5764 5763 5761 5759 5756 5754 5751 5749 5746 5744 5741 5739 5736 5733 5731 5728 5725 5722 5719 5717 5715 5712 5710 5709 5708 5707 5706 5705 5704 5704 5703 5703 5703 5703 5703 5703
5773 5771 5769 5767 5764 5762 5760 5759 5757 5755 5753 5751 5748 5746 5743 5741 5738 5735 5732 5729 5726 5724 5721 5718 5715 5712 5710 5707 5705 5703 5701 5700 5699 5698 5697 5696 5696 5696 5695 5695 5695 5695 5695
5767 5766 5763 5761 5759 5757 5755 5753 5751 5749 5747 5745 5743 5740 5738 5735 5732 5729 5726 5722 5719 5717 5713 5711 5708 5705 5703 5700 5697 5695 5694 5693 5692 5691 5689 5688 5688 5687 5687 5687 5687 5687 5687
5760 5759 5757 5755 5753 5751 5750 5748 5745 5743 5741 5739 5737 5734 5731 5728 5725 5722 5719 5716 5713 5710 5707 5704 5701 5698 5696 5693 5691 5689 5687 5685 5684 5683 5682 5681 5680 5679 5679 5679 5679 5679 5678
5754 5752 5751 5749 5747 5745 5744 5742 5739 5737 5735 5733 5730 5727 5725 5721 5718 5715 5712 5709 5706 5703 5700 5697 5694 5691 5689 5686 5684 5682 5680 5678 5677 5676 5674 5673 5672 5672 5671 5671 5671 5670 5670
5747 5746 5744 5743 5741 5739 5737 5735 5733 5731 5729 5726 5724 5721 5718 5715 5711 5708 5705 5701 5698 5695 5692 5689 5687 5684 5682 5679 5677 5675 5673 5671 5670 5668 5667 5666 5665 5664 5663 5663 5662 5662 5662
5741 5739 5738 5736 5734 5732 5731 5729 5727 5724 5722 5720 5717 5714 5711 5708 5704 5701 5697 5694 5690 5688 5685 5682 5680 5677 5674 5672 5669 5667 5665 5664 5662 5661 5660 5659 5657 5656 5656 5655 5654 5654 5653
5734 5732 5731 5729 5727 5726 5724 5722 5720 5718 5716 5713 5710 5707 5704 5701 5697 5693 5689 5686 5683 5679 5677 5674 5672 5669 5667 5664 5662 5659 5658 5656 5655 5654 5653 5651 5650 5649 5648 5647 5646 5645 5645
5726 5725 5723 5722 5720 5719 5717 5715 5713 5711 5708 5706 5703 5700 5697 5693 5689 5686 5682 5678 5674 5671 5669 5666 5664 5661 5659 5656 5654 5652 5651 5649 5648 5646 5645 5644 5643 5641 5640 5638 5637 5637 5636